{"data":{"norad_id":58439,"epoch":"2026-09-20T08:25:16.963392Z","epoch_age_seconds":159797,"freshness":"FRESH","line1":"1 58439U 23183C   26263.35089078 -.00000461  00000+0 -72498-5 0  9992","line2":"2 58439  43.0033  22.4162 0000929 261.7940  98.2806 15.27575429156507","mean_motion":15.27575429,"eccentricity":9.29e-5,"inclination_deg":43.0033,"raan_deg":22.4162,"arg_perigee_deg":261.794,"mean_anomaly_deg":98.2806,"bstar":-7.2498e-6,"rev_number":15650,"period_min":94.267030790268,"perigee_km":482.42537783233,"apogee_km":483.70018875206,"semimajor_km":6861.1997832922,"source":"CELESTRAK","updated_at":"2026-09-21T09:00:33.875466Z"}}